Vertical_Velocity
0 1 3 2 1 2 2 -0 1 2 0 -1 1 3 2 0 2 -0 -2 1 0 -1 0 -1 0 4 4 -4 3 -2 12 16 2 -2 6 -3 1 2 -1 3 -3 -3 -2
-1 5 3 0 -0 2 1 -0 2 1 -0 1 1 2 1 -0 0 1 1 0 -0 2 4 0 -1 0 -4 5 1 -2 2 7 -2 4 3 3 2 3 5 -0 1 -5 -4
0 -1 -1 3 1 2 -1 0 1 1 2 -1 1 0 1 1 -1 -2 -2 -1 0 -1 -1 0 2 -1 -0 -0 5 2 -2 2 3 1 4 1 4 0 0 1 -1 -1 -1
-1 0 1 1 2 0 0 -0 -0 -0 -0 1 -1 -0 -1 -0 -1 -1 -2 1 -1 0 0 1 1 0 2 -2 1 3 -0 5 5 2 1 4 -1 2 -1 0 -0 -2 5
4 -2 -2 2 -0 1 -1 1 2 1 -1 -1 0 0 1 0 -0 0 -1 -1 -3 -1 0 0 -0 1 -1 -2 -0 1 3 -1 3 5 1 -2 0 2 -1 -1 2 -3 -2
2 -0 4 1 1 -0 -1 5 2 1 -2 -2 -0 0 -0 2 0 -1 -0 -0 -0 -1 -1 -2 -2 -1 -2 -3 1 -0 3 2 0 1 0 -1 -2 -1 1 4 5 -1 -1
3 -2 0 3 -1 1 4 -0 -1 1 0 1 -1 0 0 -0 -1 -0 -2 -0 -1 -2 -2 -1 -0 -1 -1 -0 1 1 -3 0 1 2 -1 2 2 2 -1 -2 -0 -1 1
-1 6 1 -0 1 0 -2 -4 0 -1 -1 0 -1 -1 1 -0 0 -0 -1 -0 -2 -1 -3 -3 -2 -0 1 1 0 -0 1 1 -1 -2 3 -0 -2 -2 6 4 6 2 4
2 -0 -0 -2 2 -1 -2 1 0 0 -1 -1 -0 2 0 0 -2 -3 -2 -2 0 -1 -3 -2 -2 -0 -0 0 -1 1 -3 0 0 4 -1 2 -2 2 2 2 -1 -0 2
-1 3 -1 0 -0 0 -1 -1 -2 -0 -0 0 -2 1 -0 1 -2 -2 -2 -2 -0 -1 -3 0 0 -1 0 -1 -0 2 1 1 0 4 -2 2 2 -1 1 -0 1 1 2
-2 -1 -2 -0 3 1 -2 0 -1 1 -2 -3 -1 -0 -1 -3 -1 -1 -3 -3 -3 -1 -3 -1 -0 1 2 0 2 3 4 -0 -3 5 -3 3 -1 3 0 2 0 1 0
2 1 2 2 -1 -2 -1 -1 1 0 -3 -2 -1 1 0 -0 -4 -3 -1 -1 -3 -2 1 -1 -1 -1 1 -0 -2 -1 0 1 1 0 1 4 -4 1 3 -0 1 -0 2
2 1 0 -2 -2 0 -0 -1 -2 -2 -1 0 -2 -2 -1 -1 -1 -2 -3 1 0 -5 -0 -2 -1 -2 -1 1 -0 2 -0 1 2 -1 1 2 -0 -2 2 1 0 2 -0
-2 -0 -1 0 0 -1 0 1 0 1 -1 -1 -1 -3 -3 1 -0 -0 -2 -2 -0 -4 -1 1 -2 -1 -0 -1 0 1 -0 1 -1 1 3 1 0 -2 1 0 1 1 -2
0 0 1 0 -1 1 1 -0 0 -0 -3 -1 -0 -1 -1 -2 2 -2 -1 0 2 -1 -2 -1 -1 -1 -2 0 0 -1 -0 0 0 1 0 0 0 0 1 1 -0 -1 1
-1 -1 -1 1 1 -1 -0 1 0 -1 -3 -2 1 -3 1 -3 -2 -1 -1 -0 1 1 -2 -0 0 -0 -1 0 1 1 3 -0 2 0 2 2 -1 3 1 1 -1 -0 2
-0 -0 -0 -0 2 3 -0 -4 -2 1 -2 2 -1 -1 -2 -2 -3 -0 -2 1 1 3 -5 -2 -1 0 2 1 1 2 1 2 3 1 1 2 3 2 -1 -1 -0 -0 2
-0 -0 1 -0 -1 -1 -0 0 -0 1 -1 -0 -0 -5 0 -2 -1 -1 -1 0 -2 1 -2 -3 -2 3 0 0 1 1 3 2 1 -0 1 2 2 -0 -0 0 0 2 3
0 1 -0 -1 -0 0 1 1 -0 0 -1 -3 -0 3 0 -1 -2 -1 -0 -3 -1 -1 1 -2 -0 2 0 2 2 -0 0 1 0 -0 -0 -1 1 1 0 1 1 2 0
-1 -1 -2 -1 -2 1 0 -1 -1 -0 0 -2 -2 3 1 -3 -0 2 1 -1 -2 -1 -0 -1 1 0 0 1 1 2 1 -0 -1 -2 -1 0 1 0 0 1 1 1 -2
-2 -1 -1 -0 1 0 0 0 1 2 1 -1 -1 4 1 -4 -2 -2 0 0 -1 -0 -0 0 0 1 1 1 1 1 2 1 2 1 1 1 1 -1 2 1 -0 1 1
0 0 -1 0 0 1 1 1 2 1 1 0 2 2 2 1 -0 1 0 1 2 1 1 -1 -1 -0 2 -0 1 -0 -1 -1 -0 2 1 2 0 0 1 0 -0 0 0
-1 -0 -0 0 0 0 1 1 1 1 1 2 1 1 2 1 1 1 0 1 1 1 1 0 0 -1 0 1 0 1 -1 -1 3 3 1 2 2 2 2 1 1 -1 -2
0 -0 0 1 0 0 1 0 0 0 -0 0 0 -0 -0 0 -1 -0 1 1 1 1 1 0 -0 -0 1 1 1 0 -1 0 1 3 3 1 0 3 -1 0 -0 -2 -1
1 1 -1 -1 1 0 -0 -0 0 0 -0 -0 -1 -3 -1 -1 -1 -0 1 0 0 1 0 1 0 -1 0 2 1 -1 -0 3 3 3 2 3 2 3 2 0 1 1 3
1 1 1 0 -0 -0 -0 -1 -1 -1 -1 -1 -1 0 -0 -1 -2 -1 -1 -2 -2 -1 -0 -0 -1 0 1 0 0 2 1 1 1 4 3 2 2 0 2 2 3 1 -1
Height
1500 1504 1507 1510 1513 1516 1519 1522 1526 1528 1529 1531 1533 1533 1533 1533 1533 1534 1534 1534 1533 1533 1532 1531 1531 1529 1527 1526 1528 1528 1528 1528 1528 1530 1528 1531 1532 1533 1534 1534 1535 1536 1536
1498 1502 1503 1508 1511 1514 1516 1520 1522 1524 1526 1528 1529 1529 1530 1530 1530 1530 1530 1530 1530 1529 1527 1525 1525 1524 1522 1522 1522 1523 1523 1524 1524 1524 1524 1524 1527 1528 1528 1530 1531 1530 1531
1494 1498 1502 1506 1508 1511 1514 1516 1518 1521 1523 1525 1525 1525 1526 1527 1526 1526 1526 1526 1525 1524 1522 1520 1519 1518 1517 1517 1518 1517 1518 1520 1519 1520 1519 1521 1521 1522 1523 1525 1527 1527 1527
1493 1496 1499 1502 1506 1509 1511 1514 1517 1519 1520 1521 1521 1522 1522 1522 1522 1522 1522 1521 1520 1519 1518 1516 1515 1514 1513 1513 1514 1513 1513 1514 1514 1515 1516 1517 1517 1518 1519 1521 1522 1524 1524
1490 1493 1497 1500 1503 1507 1510 1513 1514 1515 1516 1518 1518 1518 1519 1519 1518 1518 1517 1517 1516 1514 1513 1511 1510 1509 1509 1509 1510 1510 1509 1510 1510 1510 1511 1512 1512 1512 1512 1515 1516 1518 1520
1489 1492 1494 1496 1501 1503 1508 1510 1510 1512 1513 1514 1515 1515 1516 1515 1515 1514 1513 1512 1511 1509 1507 1506 1505 1504 1503 1504 1504 1504 1505 1504 1505 1505 1506 1506 1507 1508 1510 1511 1511 1512 1514
1485 1489 1491 1494 1497 1501 1503 1505 1508 1509 1510 1511 1512 1512 1512 1511 1510 1509 1508 1507 1506 1504 1502 1500 1499 1498 1498 1498 1498 1497 1498 1498 1499 1500 1501 1502 1502 1503 1505 1508 1508 1509 1511
1486 1487 1488 1492 1495 1498 1500 1504 1506 1506 1507 1508 1508 1509 1508 1507 1506 1505 1503 1502 1500 1499 1497 1495 1494 1493 1493 1492 1492 1492 1492 1492 1493 1495 1496 1498 1499 1500 1501 1503 1505 1507 1508
1482 1485 1488 1491 1493 1495 1499 1502 1502 1503 1504 1505 1505 1505 1504 1502 1501 1500 1498 1497 1495 1494 1492 1491 1490 1489 1489 1489 1488 1488 1489 1490 1491 1491 1493 1494 1495 1497 1498 1500 1500 1503 1504
1483 1484 1487 1490 1491 1494 1496 1498 1500 1501 1501 1501 1502 1501 1499 1497 1496 1494 1493 1492 1490 1488 1487 1487 1487 1486 1486 1485 1486 1486 1486 1487 1488 1488 1490 1491 1492 1494 1495 1496 1498 1501 1502
1482 1483 1485 1488 1490 1491 1493 1495 1497 1497 1498 1498 1498 1496 1494 1493 1491 1490 1488 1487 1486 1485 1484 1484 1483 1483 1483 1483 1483 1484 1484 1484 1486 1486 1487 1488 1489 1491 1492 1493 1495 1497 1499
1480 1481 1484 1485 1486 1489 1491 1493 1493 1493 1493 1493 1492 1491 1489 1488 1486 1487 1486 1485 1483 1482 1481 1481 1480 1480 1480 1481 1481 1481 1481 1481 1482 1484 1484 1485 1487 1489 1490 1491 1493 1494 1496
1478 1479 1480 1482 1484 1485 1487 1488 1489 1489 1489 1488 1487 1486 1485 1484 1483 1483 1483 1482 1479 1478 1478 1477 1477 1476 1477 1478 1478 1479 1478 1479 1479 1480 1482 1483 1485 1486 1488 1489 1491 1492 1494
1476 1477 1478 1479 1480 1482 1483 1483 1484 1484 1484 1483 1482 1481 1480 1480 1479 1479 1478 1477 1476 1475 1474 1474 1474 1475 1475 1475 1476 1476 1475 1476 1477 1478 1480 1480 1481 1483 1485 1487 1488 1490 1492
1473 1474 1475 1476 1476 1477 1478 1479 1479 1480 1480 1479 1478 1477 1475 1475 1475 1473 1472 1472 1471 1470 1470 1470 1470 1471 1472 1472 1472 1472 1472 1473 1474 1475 1476 1477 1479 1481 1482 1484 1485 1487 1489
1470 1471 1471 1472 1472 1473 1473 1474 1475 1475 1475 1475 1473 1473 1472 1470 1469 1468 1467 1467 1466 1465 1464 1465 1466 1466 1467 1468 1468 1468 1469 1470 1471 1472 1473 1474 1476 1477 1479 1480 1482 1484 1486
1467 1468 1467 1468 1468 1468 1468 1469 1470 1471 1470 1469 1469 1468 1466 1465 1463 1463 1462 1461 1461 1461 1459 1461 1462 1463 1464 1464 1464 1465 1466 1467 1468 1468 1469 1470 1472 1473 1474 1476 1478 1480 1481
1464 1464 1463 1462 1463 1463 1464 1464 1465 1464 1464 1464 1464 1463 1461 1460 1459 1458 1457 1456 1455 1455 1454 1456 1457 1458 1460 1460 1460 1461 1461 1462 1463 1464 1465 1466 1468 1469 1470 1472 1474 1475 1477
1459 1459 1458 1458 1458 1458 1458 1458 1458 1458 1458 1458 1458 1458 1456 1455 1453 1452 1452 1450 1449 1450 1450 1451 1452 1454 1455 1456 1456 1457 1457 1458 1458 1459 1460 1461 1463 1464 1465 1467 1468 1470 1472
1455 1454 1454 1453 1452 1452 1452 1452 1453 1452 1452 1452 1452 1451 1451 1450 1448 1447 1446 1445 1444 1444 1445 1445 1446 1448 1449 1450 1451 1451 1451 1452 1452 1453 1455 1456 1457 1459 1460 1461 1463 1464 1465
1452 1451 1450 1449 1448 1447 1447 1447 1447 1447 1447 1446 1446 1446 1445 1444 1443 1442 1441 1440 1439 1439 1439 1439 1439 1441 1443 1443 1444 1444 1445 1445 1446 1446 1448 1449 1451 1451 1453 1455 1456 1458 1459
1448 1447 1446 1445 1444 1443 1442 1442 1442 1442 1441 1441 1440 1440 1439 1438 1437 1436 1436 1435 1434 1434 1433 1433 1433 1433 1435 1436 1437 1437 1437 1437 1438 1439 1440 1442 1443 1445 1446 1447 1448 1450 1452
1446 1444 1443 1441 1440 1439 1438 1438 1437 1437 1436 1435 1434 1434 1433 1433 1432 1431 1430 1429 1428 1427 1427 1427 1427 1426 1427 1427 1428 1428 1429 1430 1431 1432 1432 1433 1434 1436 1437 1438 1440 1442 1443
1443 1441 1439 1438 1436 1435 1434 1433 1432 1431 1431 1430 1429 1428 1428 1427 1425 1424 1423 1422 1421 1421 1420 1420 1419 1419 1419 1419 1419 1419 1420 1421 1422 1422 1423 1423 1424 1426 1427 1429 1431 1433 1435
1440 1438 1436 1435 1433 1431 1430 1428 1427 1426 1425 1423 1422 1422 1421 1420 1419 1418 1417 1416 1415 1414 1413 1412 1412 1411 1411 1411 1410 1410 1410 1410 1411 1412 1412 1413 1414 1416 1417 1418 1420 1422 1425
1438 1435 1433 1432 1430 1428 1426 1424 1423 1421 1420 1418 1417 1416 1414 1413 1411 1410 1410 1409 1408 1407 1406 1405 1404 1403 1403 1402 1401 1401 1401 1401 1401 1402 1402 1402 1402 1404 1405 1407 1410 1412 1414